Year,Month,Day,Hour,Minute,Value (Times are PST for temperature in C)
2006,09,28,00,00,15.50
2006,09,28,00,01,15.50
2006,09,28,00,02,15.50
2006,09,28,00,03,15.40
2006,09,28,00,04,15.40
2006,09,28,00,05,15.40
2006,09,28,00,06,15.30
2006,09,28,00,07,15.30
2006,09,28,00,08,15.40
2006,09,28,00,09,15.40
2006,09,28,00,10,15.40
2006,09,28,00,11,15.40
2006,09,28,00,12,15.50
2006,09,28,00,13,15.50
2006,09,28,00,14,15.50
2006,09,28,00,15,15.60
2006,09,28,00,16,15.60
2006,09,28,00,17,15.60
2006,09,28,00,18,15.60
2006,09,28,00,19,15.70
2006,09,28,00,20,15.70
2006,09,28,00,21,15.70
2006,09,28,00,22,15.70
2006,09,28,00,23,15.70
2006,09,28,00,24,15.80
2006,09,28,00,25,15.80
2006,09,28,00,26,15.80
2006,09,28,00,27,15.80
2006,09,28,00,28,15.80
2006,09,28,00,29,15.80
2006,09,28,00,30,15.80
2006,09,28,00,31,15.80
2006,09,28,00,32,15.80
2006,09,28,00,33,15.80
2006,09,28,00,34,15.80
2006,09,28,00,35,15.80
2006,09,28,00,36,15.80
2006,09,28,00,37,15.80
2006,09,28,00,38,15.80
2006,09,28,00,39,15.80
2006,09,28,00,40,15.80
2006,09,28,00,41,15.80
2006,09,28,00,42,15.80
2006,09,28,00,43,15.80
2006,09,28,00,44,15.80
2006,09,28,00,45,15.80
2006,09,28,00,46,15.80
2006,09,28,00,47,15.80
2006,09,28,00,48,15.80
2006,09,28,00,49,15.80
2006,09,28,00,50,15.80
2006,09,28,00,51,15.80
2006,09,28,00,52,15.80
2006,09,28,00,53,15.70
2006,09,28,00,54,15.70
2006,09,28,00,55,15.70
2006,09,28,00,56,15.70
2006,09,28,00,57,15.70
2006,09,28,00,58,15.70
2006,09,28,00,59,15.60
2006,09,28,01,00,15.60
2006,09,28,01,01,15.60
2006,09,28,01,02,15.60
2006,09,28,01,03,15.50
2006,09,28,01,04,15.50
2006,09,28,01,05,15.50
2006,09,28,01,06,15.50
2006,09,28,01,07,15.50
2006,09,28,01,08,15.40
2006,09,28,01,09,15.40
2006,09,28,01,10,15.40
2006,09,28,01,11,15.40
2006,09,28,01,12,15.40
2006,09,28,01,13,15.40
2006,09,28,01,14,15.40
2006,09,28,01,15,15.40
2006,09,28,01,16,15.50
2006,09,28,01,17,15.50
2006,09,28,01,18,15.50
2006,09,28,01,19,15.60
2006,09,28,01,20,15.60
2006,09,28,01,21,15.60
2006,09,28,01,22,15.60
2006,09,28,01,23,15.60
2006,09,28,01,24,15.60
2006,09,28,01,25,15.60
2006,09,28,01,26,15.60
2006,09,28,01,27,15.60
2006,09,28,01,28,15.60
2006,09,28,01,29,15.50
2006,09,28,01,30,15.50
2006,09,28,01,31,15.50
2006,09,28,01,32,15.50
2006,09,28,01,33,15.50
2006,09,28,01,34,15.50
2006,09,28,01,35,15.50
2006,09,28,01,36,15.50
2006,09,28,01,37,15.60
2006,09,28,01,38,15.50
2006,09,28,01,39,15.50
2006,09,28,01,40,15.50
2006,09,28,01,41,15.50
2006,09,28,01,42,15.40
2006,09,28,01,43,15.40
2006,09,28,01,44,15.30
2006,09,28,01,45,15.30
2006,09,28,01,46,15.30
2006,09,28,01,47,15.20
2006,09,28,01,48,15.20
2006,09,28,01,49,15.20
2006,09,28,01,50,15.20
2006,09,28,01,51,15.20
2006,09,28,01,52,15.20
2006,09,28,01,53,15.20
2006,09,28,01,54,15.10
2006,09,28,01,55,15.10
2006,09,28,01,56,15.10
2006,09,28,01,57,15.10
2006,09,28,01,58,15.10
2006,09,28,01,59,15.00
2006,09,28,02,00,15.00
2006,09,28,02,01,14.90
2006,09,28,02,02,14.80
2006,09,28,02,03,14.80
2006,09,28,02,04,14.80
2006,09,28,02,05,14.80
2006,09,28,02,06,14.80
2006,09,28,02,07,14.80
2006,09,28,02,08,14.80
2006,09,28,02,09,14.80
2006,09,28,02,10,14.80
2006,09,28,02,11,14.80
2006,09,28,02,12,14.80
2006,09,28,02,13,14.80
2006,09,28,02,14,14.80
2006,09,28,02,15,14.80
2006,09,28,02,16,14.80
2006,09,28,02,17,14.80
2006,09,28,02,18,14.80
2006,09,28,02,19,14.80
2006,09,28,02,20,14.80
2006,09,28,02,21,14.80
2006,09,28,02,22,14.80
2006,09,28,02,23,14.80
2006,09,28,02,24,14.80
2006,09,28,02,25,14.80
2006,09,28,02,26,14.80
2006,09,28,02,27,14.70
2006,09,28,02,28,14.70
2006,09,28,02,29,14.70
2006,09,28,02,30,14.70
2006,09,28,02,31,14.70
2006,09,28,02,32,14.60
2006,09,28,02,33,14.60
2006,09,28,02,34,14.60
2006,09,28,02,35,14.50
2006,09,28,02,36,14.50
2006,09,28,02,37,14.50
2006,09,28,02,38,14.50
2006,09,28,02,39,14.40
2006,09,28,02,40,14.40
2006,09,28,02,41,14.40
2006,09,28,02,42,14.30
2006,09,28,02,43,14.30
2006,09,28,02,44,14.30
2006,09,28,02,45,14.30
2006,09,28,02,46,14.20
2006,09,28,02,47,14.20
2006,09,28,02,48,14.20
2006,09,28,02,49,14.20
2006,09,28,02,50,14.20
2006,09,28,02,51,14.20
2006,09,28,02,52,14.20
2006,09,28,02,53,14.10
2006,09,28,02,54,14.10
2006,09,28,02,55,14.00
2006,09,28,02,56,14.00
2006,09,28,02,57,14.00
2006,09,28,02,58,13.90
2006,09,28,02,59,13.90
2006,09,28,03,00,13.80
2006,09,28,03,01,13.80
2006,09,28,03,02,13.70
2006,09,28,03,03,13.70
2006,09,28,03,04,13.70
2006,09,28,03,05,13.70
2006,09,28,03,06,13.70
2006,09,28,03,07,13.60
2006,09,28,03,08,13.60
2006,09,28,03,09,13.60
2006,09,28,03,10,13.60
2006,09,28,03,11,13.60
2006,09,28,03,12,13.60
2006,09,28,03,13,13.60
2006,09,28,03,14,13.60
2006,09,28,03,15,13.60
2006,09,28,03,16,13.70
2006,09,28,03,17,13.70
2006,09,28,03,18,13.70
2006,09,28,03,19,13.70
2006,09,28,03,20,13.70
2006,09,28,03,21,13.70
2006,09,28,03,22,13.70
2006,09,28,03,23,13.70
2006,09,28,03,24,13.70
2006,09,28,03,25,13.80
2006,09,28,03,26,13.90
2006,09,28,03,27,13.90
2006,09,28,03,28,13.90
2006,09,28,03,29,13.90
2006,09,28,03,30,13.90
2006,09,28,03,31,13.80
2006,09,28,03,32,13.80
2006,09,28,03,33,13.80
2006,09,28,03,34,13.80
2006,09,28,03,35,13.80
2006,09,28,03,36,13.80
2006,09,28,03,37,13.80
2006,09,28,03,38,13.80
2006,09,28,03,39,13.70
2006,09,28,03,40,13.70
2006,09,28,03,41,13.70
2006,09,28,03,42,13.70
2006,09,28,03,43,13.70
2006,09,28,03,44,13.70
2006,09,28,03,45,13.80
2006,09,28,03,46,13.80
2006,09,28,03,47,13.70
2006,09,28,03,48,13.70
2006,09,28,03,49,13.70
2006,09,28,03,50,13.70
2006,09,28,03,51,13.70
2006,09,28,03,52,13.70
2006,09,28,03,53,13.70
2006,09,28,03,54,13.80
2006,09,28,03,55,13.80
2006,09,28,03,56,13.90
2006,09,28,03,57,13.90
2006,09,28,03,58,13.90
2006,09,28,03,59,13.90
2006,09,28,04,00,14.00
2006,09,28,04,01,14.10
2006,09,28,04,02,14.20
2006,09,28,04,03,14.20
2006,09,28,04,04,14.20
2006,09,28,04,05,14.20
2006,09,28,04,06,14.20
2006,09,28,04,07,14.20
2006,09,28,04,08,14.20
2006,09,28,04,09,14.20
2006,09,28,04,10,14.20
2006,09,28,04,11,14.20
2006,09,28,04,12,14.20
2006,09,28,04,13,14.20
2006,09,28,04,14,14.20
2006,09,28,04,15,14.20
2006,09,28,04,16,14.10
2006,09,28,04,17,14.10
2006,09,28,04,18,14.10
2006,09,28,04,19,14.10
2006,09,28,04,20,14.10
2006,09,28,04,21,14.10
2006,09,28,04,22,14.10
2006,09,28,04,23,14.10
2006,09,28,04,24,14.10
2006,09,28,04,25,14.10
2006,09,28,04,26,14.10
2006,09,28,04,27,14.10
2006,09,28,04,28,14.10
2006,09,28,04,29,14.10
2006,09,28,04,30,14.10
2006,09,28,04,31,14.10
2006,09,28,04,32,14.10
2006,09,28,04,33,14.10
2006,09,28,04,34,14.10
2006,09,28,04,35,14.00
2006,09,28,04,36,14.00
2006,09,28,04,37,14.00
2006,09,28,04,38,14.00
2006,09,28,04,39,14.00
2006,09,28,04,40,14.00
2006,09,28,04,41,14.00
2006,09,28,04,42,13.90
2006,09,28,04,43,13.90
2006,09,28,04,44,13.90
2006,09,28,04,45,13.90
2006,09,28,04,46,13.90
2006,09,28,04,47,13.90
2006,09,28,04,48,13.90
2006,09,28,04,49,13.90
2006,09,28,04,50,13.90
2006,09,28,04,51,13.90
2006,09,28,04,52,13.90
2006,09,28,04,53,13.90
2006,09,28,04,54,13.90
2006,09,28,04,55,13.90
2006,09,28,04,56,13.90
2006,09,28,04,57,13.90
2006,09,28,04,58,14.00
2006,09,28,04,59,14.00
2006,09,28,05,00,14.00
2006,09,28,05,01,14.00
2006,09,28,05,02,14.00
2006,09,28,05,03,14.00
2006,09,28,05,04,14.00
2006,09,28,05,05,14.00
2006,09,28,05,06,13.90
2006,09,28,05,07,13.90
2006,09,28,05,08,13.80
2006,09,28,05,09,13.70
2006,09,28,05,10,13.70
2006,09,28,05,11,13.70
2006,09,28,05,12,13.60
2006,09,28,05,13,13.60
2006,09,28,05,14,13.60
2006,09,28,05,15,13.60
2006,09,28,05,16,13.60
2006,09,28,05,17,13.60
2006,09,28,05,18,13.60
2006,09,28,05,19,13.60
2006,09,28,05,20,13.50
2006,09,28,05,21,13.50
2006,09,28,05,22,13.50
2006,09,28,05,23,13.50
2006,09,28,05,24,13.50
2006,09,28,05,25,13.50
2006,09,28,05,26,13.50
2006,09,28,05,27,13.50
2006,09,28,05,28,13.50
2006,09,28,05,29,13.50
2006,09,28,05,30,13.50
2006,09,28,05,31,13.50
2006,09,28,05,32,13.40
2006,09,28,05,33,13.40
2006,09,28,05,34,13.40
2006,09,28,05,35,13.30
2006,09,28,05,36,13.30
2006,09,28,05,37,13.30
2006,09,28,05,38,13.30
2006,09,28,05,39,13.30
2006,09,28,05,40,13.30
2006,09,28,05,41,13.30
2006,09,28,05,42,13.40
2006,09,28,05,43,13.40
2006,09,28,05,44,13.40
2006,09,28,05,45,13.30
2006,09,28,05,46,13.30
2006,09,28,05,47,13.30
2006,09,28,05,48,13.30
2006,09,28,05,49,13.30
2006,09,28,05,50,13.30
2006,09,28,05,51,13.30
2006,09,28,05,52,13.30
2006,09,28,05,53,13.20
2006,09,28,05,54,13.10
2006,09,28,05,55,13.10
2006,09,28,05,56,13.00
2006,09,28,05,57,13.00
2006,09,28,05,58,13.00
2006,09,28,05,59,13.00
2006,09,28,06,00,13.00
2006,09,28,06,01,12.90
2006,09,28,06,02,12.90
2006,09,28,06,03,12.90
2006,09,28,06,04,12.90
2006,09,28,06,05,13.00
2006,09,28,06,06,13.00
2006,09,28,06,07,13.00
2006,09,28,06,08,13.00
2006,09,28,06,09,13.10
2006,09,28,06,10,13.10
2006,09,28,06,11,13.20
2006,09,28,06,12,13.20
2006,09,28,06,13,13.20
2006,09,28,06,14,13.20
2006,09,28,06,15,13.20
2006,09,28,06,16,13.30
2006,09,28,06,17,13.30
2006,09,28,06,18,13.30
2006,09,28,06,19,13.30
2006,09,28,06,20,13.30
2006,09,28,06,21,13.30
2006,09,28,06,22,13.30
2006,09,28,06,23,13.30
2006,09,28,06,24,13.30
2006,09,28,06,25,13.30
2006,09,28,06,26,13.30
2006,09,28,06,27,13.30
2006,09,28,06,28,13.30
2006,09,28,06,29,13.30
2006,09,28,06,30,13.30
2006,09,28,06,31,13.30
2006,09,28,06,32,13.30
2006,09,28,06,33,13.30
2006,09,28,06,34,13.30
2006,09,28,06,35,13.30
2006,09,28,06,36,13.30
2006,09,28,06,37,13.30
2006,09,28,06,38,13.30
2006,09,28,06,39,13.30
2006,09,28,06,40,13.30
2006,09,28,06,41,13.30
2006,09,28,06,42,13.30
2006,09,28,06,43,13.30
2006,09,28,06,44,13.30
2006,09,28,06,45,13.30
2006,09,28,06,46,13.30
2006,09,28,06,47,13.20
2006,09,28,06,48,13.20
2006,09,28,06,49,13.20
2006,09,28,06,50,13.20
2006,09,28,06,51,13.20
2006,09,28,06,52,13.20
2006,09,28,06,53,13.20
2006,09,28,06,54,13.20
2006,09,28,06,55,13.20
2006,09,28,06,56,13.20
2006,09,28,06,57,13.20
2006,09,28,06,58,13.20
2006,09,28,06,59,13.20
2006,09,28,07,00,13.20
2006,09,28,07,01,13.20
2006,09,28,07,02,13.20
2006,09,28,07,03,13.20
2006,09,28,07,04,13.20
2006,09,28,07,05,13.20
2006,09,28,07,06,13.20
2006,09,28,07,07,13.20
2006,09,28,07,08,13.20
2006,09,28,07,09,13.10
2006,09,28,07,10,13.10
2006,09,28,07,11,13.10
2006,09,28,07,12,13.10
2006,09,28,07,13,13.00
2006,09,28,07,14,13.00
2006,09,28,07,15,13.00
2006,09,28,07,16,12.90
2006,09,28,07,17,12.90
2006,09,28,07,18,12.90
2006,09,28,07,19,12.90
2006,09,28,07,20,12.90
2006,09,28,07,21,12.90
2006,09,28,07,22,12.80
2006,09,28,07,23,12.80
2006,09,28,07,24,12.80
2006,09,28,07,25,12.80
2006,09,28,07,26,12.80
2006,09,28,07,27,12.80
2006,09,28,07,28,12.80
2006,09,28,07,29,12.80
2006,09,28,07,30,12.80
2006,09,28,07,31,12.80
2006,09,28,07,32,12.80
2006,09,28,07,33,12.80
2006,09,28,07,34,12.80
2006,09,28,07,35,12.80
2006,09,28,07,36,12.80
2006,09,28,07,37,12.80
2006,09,28,07,38,12.80
2006,09,28,07,39,12.90
2006,09,28,07,40,12.90
2006,09,28,07,41,12.90
2006,09,28,07,42,12.90
2006,09,28,07,43,13.00
2006,09,28,07,44,13.00
2006,09,28,07,45,13.10
2006,09,28,07,46,13.10
2006,09,28,07,47,13.10
2006,09,28,07,48,13.10
2006,09,28,07,49,13.20
2006,09,28,07,50,13.20
2006,09,28,07,51,13.20
2006,09,28,07,52,13.20
2006,09,28,07,53,13.20
2006,09,28,07,54,13.20
2006,09,28,07,55,13.20
2006,09,28,07,56,13.20
2006,09,28,07,57,13.20
2006,09,28,07,58,13.20
2006,09,28,07,59,13.20
2006,09,28,08,00,13.20
2006,09,28,08,01,13.10
2006,09,28,08,02,13.20
2006,09,28,08,03,13.20
2006,09,28,08,04,13.20
2006,09,28,08,05,13.20
2006,09,28,08,06,13.20
2006,09,28,08,07,13.20
2006,09,28,08,08,13.20
2006,09,28,08,09,13.30
2006,09,28,08,10,13.30
2006,09,28,08,11,13.30
2006,09,28,08,12,13.30
2006,09,28,08,13,13.30
2006,09,28,08,14,13.30
2006,09,28,08,15,13.30
2006,09,28,08,16,13.30
2006,09,28,08,17,13.30
2006,09,28,08,18,13.30
2006,09,28,08,19,13.30
2006,09,28,08,20,13.30
2006,09,28,08,21,13.30
2006,09,28,08,22,13.30
2006,09,28,08,23,13.30
2006,09,28,08,24,13.30
2006,09,28,08,25,13.30
2006,09,28,08,26,13.30
2006,09,28,08,27,13.30
2006,09,28,08,28,13.40
2006,09,28,08,29,13.40
2006,09,28,08,30,13.40
2006,09,28,08,31,13.40
2006,09,28,08,32,13.40
2006,09,28,08,33,13.40
2006,09,28,08,34,13.50
2006,09,28,08,35,13.50
2006,09,28,08,36,13.50
2006,09,28,08,37,13.50
2006,09,28,08,38,13.50
2006,09,28,08,39,13.60
2006,09,28,08,40,13.60
2006,09,28,08,41,13.60
2006,09,28,08,42,13.70
2006,09,28,08,43,13.70
2006,09,28,08,44,13.70
2006,09,28,08,45,13.70
2006,09,28,08,46,13.70
2006,09,28,08,47,13.80
2006,09,28,08,48,13.80
2006,09,28,08,49,13.80
2006,09,28,08,50,13.80
2006,09,28,08,51,13.90
2006,09,28,08,52,13.90
2006,09,28,08,53,13.90
2006,09,28,08,54,14.00
2006,09,28,08,55,14.00
2006,09,28,08,56,14.00
2006,09,28,08,57,14.10
2006,09,28,08,58,14.10
2006,09,28,08,59,14.10
2006,09,28,09,00,14.20
2006,09,28,09,01,14.20
2006,09,28,09,02,14.20
2006,09,28,09,03,14.30
2006,09,28,09,04,14.30
2006,09,28,09,05,14.40
2006,09,28,09,06,14.40
2006,09,28,09,07,14.40
2006,09,28,09,08,14.50
2006,09,28,09,09,14.50
2006,09,28,09,10,14.50
2006,09,28,09,11,14.60
2006,09,28,09,12,14.60
2006,09,28,09,13,14.70
2006,09,28,09,14,14.80
2006,09,28,09,15,14.80
2006,09,28,09,16,14.90
2006,09,28,09,17,14.90
2006,09,28,09,18,15.00
2006,09,28,09,19,15.00
2006,09,28,09,20,15.10
2006,09,28,09,21,15.10
2006,09,28,09,22,15.20
2006,09,28,09,23,15.30
2006,09,28,09,24,15.30
2006,09,28,09,25,15.40
2006,09,28,09,26,15.50
2006,09,28,09,27,15.50
2006,09,28,09,28,15.60
2006,09,28,09,29,15.70
2006,09,28,09,30,15.80
2006,09,28,09,31,15.80
2006,09,28,09,32,15.90
2006,09,28,09,33,15.90
2006,09,28,09,34,16.00
2006,09,28,09,35,16.10
2006,09,28,09,36,16.10
2006,09,28,09,37,16.20
2006,09,28,09,38,16.30
2006,09,28,09,39,16.30
2006,09,28,09,40,16.40
2006,09,28,09,41,16.40
2006,09,28,09,42,16.40
2006,09,28,09,43,16.60
2006,09,28,09,44,16.60
2006,09,28,09,45,16.60
2006,09,28,09,46,16.70
2006,09,28,09,47,16.70
2006,09,28,09,48,16.70
2006,09,28,09,49,16.80
2006,09,28,09,50,16.80
2006,09,28,09,51,16.90
2006,09,28,09,52,16.90
2006,09,28,09,53,17.00
2006,09,28,09,54,17.10
2006,09,28,09,55,17.10
2006,09,28,09,56,17.10
2006,09,28,09,57,17.20
2006,09,28,09,58,17.20
2006,09,28,09,59,17.20
2006,09,28,10,00,17.20
2006,09,28,10,01,17.20
2006,09,28,10,02,17.30
2006,09,28,10,03,17.30
2006,09,28,10,04,17.30
2006,09,28,10,05,17.30
2006,09,28,10,06,17.30
2006,09,28,10,07,17.30
2006,09,28,10,08,17.30
2006,09,28,10,09,17.40
2006,09,28,10,10,17.40
2006,09,28,10,11,17.40
2006,09,28,10,12,17.50
2006,09,28,10,13,17.50
2006,09,28,10,14,17.60
2006,09,28,10,15,17.60
2006,09,28,10,16,17.70
2006,09,28,10,17,17.70
2006,09,28,10,18,17.80
2006,09,28,10,19,17.80
2006,09,28,10,20,17.90
2006,09,28,10,21,17.90
2006,09,28,10,22,17.90
2006,09,28,10,23,18.00
2006,09,28,10,24,18.10
2006,09,28,10,25,18.10
2006,09,28,10,26,18.20
2006,09,28,10,27,18.20
2006,09,28,10,28,18.20
2006,09,28,10,29,18.30
2006,09,28,10,30,18.50
2006,09,28,10,31,18.60
2006,09,28,10,32,18.80
2006,09,28,10,33,18.90
2006,09,28,10,34,18.90
2006,09,28,10,35,19.10
2006,09,28,10,36,19.10
2006,09,28,10,37,19.10
2006,09,28,10,38,19.20
2006,09,28,10,39,19.30
2006,09,28,10,40,19.40
2006,09,28,10,41,19.40
2006,09,28,10,42,19.40
2006,09,28,10,43,19.50
2006,09,28,10,44,19.50
2006,09,28,10,45,19.50
2006,09,28,10,46,19.50
2006,09,28,10,47,19.50
2006,09,28,10,48,19.50
2006,09,28,10,49,19.50
2006,09,28,10,50,19.50
2006,09,28,10,51,19.50
2006,09,28,10,52,19.60
2006,09,28,10,53,19.60
2006,09,28,10,54,19.60
2006,09,28,10,55,19.60
2006,09,28,10,56,19.60
2006,09,28,10,57,19.70
2006,09,28,10,58,19.70
2006,09,28,10,59,19.80
2006,09,28,11,00,19.80
2006,09,28,11,01,19.90
2006,09,28,11,02,19.90
2006,09,28,11,03,20.00
2006,09,28,11,04,20.10
2006,09,28,11,05,20.10
2006,09,28,11,06,20.20
2006,09,28,11,07,20.30
2006,09,28,11,08,20.40
2006,09,28,11,09,20.40
2006,09,28,11,10,20.40
2006,09,28,11,11,20.40
2006,09,28,11,12,20.50
2006,09,28,11,13,20.50
2006,09,28,11,14,20.50
2006,09,28,11,15,20.50
2006,09,28,11,16,20.50
2006,09,28,11,17,20.60
2006,09,28,11,18,20.50
2006,09,28,11,19,20.50
2006,09,28,11,20,20.60
2006,09,28,11,21,20.60
2006,09,28,11,22,20.60
2006,09,28,11,23,20.60
2006,09,28,11,24,20.70
2006,09,28,11,25,20.80
2006,09,28,11,26,20.80
2006,09,28,11,27,20.90
2006,09,28,11,28,20.90
2006,09,28,11,29,21.00
2006,09,28,11,30,21.00
2006,09,28,11,31,21.10
2006,09,28,11,32,21.10
2006,09,28,11,33,21.10
2006,09,28,11,34,21.10
2006,09,28,11,35,21.00
2006,09,28,11,36,21.00
2006,09,28,11,37,21.10
2006,09,28,11,38,21.10
2006,09,28,11,39,21.10
2006,09,28,11,40,21.20
2006,09,28,11,41,21.20
2006,09,28,11,42,21.20
2006,09,28,11,43,21.20
2006,09,28,11,44,21.20
2006,09,28,11,45,21.20
2006,09,28,11,46,21.20
2006,09,28,11,47,21.30
2006,09,28,11,48,21.30
2006,09,28,11,49,21.30
2006,09,28,11,50,21.30
2006,09,28,11,51,21.30
2006,09,28,11,52,21.40
2006,09,28,11,53,21.50
2006,09,28,11,54,21.60
2006,09,28,11,55,21.60
2006,09,28,11,56,21.60
2006,09,28,11,57,21.60
2006,09,28,11,58,21.60
2006,09,28,11,59,21.50
2006,09,28,12,00,21.40
2006,09,28,12,01,21.40
2006,09,28,12,02,21.30
2006,09,28,12,03,21.30
2006,09,28,12,04,21.30
2006,09,28,12,05,21.40
2006,09,28,12,06,21.40
2006,09,28,12,07,21.40
2006,09,28,12,08,21.40
2006,09,28,12,09,21.40
2006,09,28,12,10,21.40
2006,09,28,12,11,21.30
2006,09,28,12,12,21.20
2006,09,28,12,13,21.20
2006,09,28,12,14,21.20
2006,09,28,12,15,21.20
2006,09,28,12,16,21.20
2006,09,28,12,17,21.20
2006,09,28,12,18,21.10
2006,09,28,12,19,21.10
2006,09,28,12,20,21.10
2006,09,28,12,21,21.00
2006,09,28,12,22,21.00
2006,09,28,12,23,21.00
2006,09,28,12,24,21.00
2006,09,28,12,25,21.10
2006,09,28,12,26,21.10
2006,09,28,12,27,21.10
2006,09,28,12,28,21.10
2006,09,28,12,29,21.20
2006,09,28,12,30,21.30
2006,09,28,12,31,21.30
2006,09,28,12,32,21.30
2006,09,28,12,33,21.40
2006,09,28,12,34,21.50
2006,09,28,12,35,21.60
2006,09,28,12,36,21.60
2006,09,28,12,37,21.60
2006,09,28,12,38,21.60
2006,09,28,12,39,21.60
2006,09,28,12,40,21.70
2006,09,28,12,41,21.70
2006,09,28,12,42,21.70
2006,09,28,12,43,21.80
2006,09,28,12,44,21.90
2006,09,28,12,45,21.90
2006,09,28,12,46,21.90
2006,09,28,12,47,21.90
2006,09,28,12,48,21.80
2006,09,28,12,49,21.80
2006,09,28,12,50,21.70
2006,09,28,12,51,21.70
2006,09,28,12,52,21.60
2006,09,28,12,53,21.60
2006,09,28,12,54,21.60
2006,09,28,12,55,21.70
2006,09,28,12,56,21.70
2006,09,28,12,57,21.70
2006,09,28,12,58,21.70
2006,09,28,12,59,21.60
2006,09,28,13,00,21.60
2006,09,28,13,01,21.60
2006,09,28,13,02,21.60
2006,09,28,13,03,21.70
2006,09,28,13,04,21.70
2006,09,28,13,05,21.70
2006,09,28,13,06,21.80
2006,09,28,13,07,21.90
2006,09,28,13,08,22.00
2006,09,28,13,09,22.00
2006,09,28,13,10,22.00
2006,09,28,13,11,22.00
2006,09,28,13,12,22.00
2006,09,28,13,13,22.00
2006,09,28,13,14,22.00
2006,09,28,13,15,21.90
2006,09,28,13,16,21.90
2006,09,28,13,17,21.90
2006,09,28,13,18,21.90
2006,09,28,13,19,21.90
2006,09,28,13,20,22.00
2006,09,28,13,21,22.00
2006,09,28,13,22,22.00
2006,09,28,13,23,22.00
2006,09,28,13,24,21.90
2006,09,28,13,25,21.90
2006,09,28,13,26,21.90
2006,09,28,13,27,22.00
2006,09,28,13,28,22.00
2006,09,28,13,29,22.00
2006,09,28,13,30,22.10
2006,09,28,13,31,22.10
2006,09,28,13,32,22.20
2006,09,28,13,33,22.20
2006,09,28,13,34,22.10
2006,09,28,13,35,22.10
2006,09,28,13,36,22.00
2006,09,28,13,37,22.00
2006,09,28,13,38,21.90
2006,09,28,13,39,21.90
2006,09,28,13,40,21.90
2006,09,28,13,41,21.80
2006,09,28,13,42,21.90
2006,09,28,13,43,22.00
2006,09,28,13,44,22.00
2006,09,28,13,45,22.00
2006,09,28,13,46,22.00
2006,09,28,13,47,22.00
2006,09,28,13,48,21.90
2006,09,28,13,49,22.00
2006,09,28,13,50,22.10
2006,09,28,13,51,22.20
2006,09,28,13,52,22.20
2006,09,28,13,53,22.20
2006,09,28,13,54,22.30
2006,09,28,13,55,22.30
2006,09,28,13,56,22.30
2006,09,28,13,57,22.30
2006,09,28,13,58,22.30
2006,09,28,13,59,22.30
2006,09,28,14,00,22.30
2006,09,28,14,01,22.40
2006,09,28,14,02,22.40
2006,09,28,14,03,22.30
2006,09,28,14,04,22.30
2006,09,28,14,05,22.30
2006,09,28,14,06,22.30
2006,09,28,14,07,22.40
2006,09,28,14,08,22.40
2006,09,28,14,09,22.40
2006,09,28,14,10,22.40
2006,09,28,14,11,22.40
2006,09,28,14,12,22.40
2006,09,28,14,13,22.50
2006,09,28,14,14,22.50
2006,09,28,14,15,22.60
2006,09,28,14,16,22.80
2006,09,28,14,17,22.90
2006,09,28,14,18,22.90
2006,09,28,14,19,22.90
2006,09,28,14,20,23.00
2006,09,28,14,21,23.10
2006,09,28,14,22,23.00
2006,09,28,14,23,22.80
2006,09,28,14,24,22.60
2006,09,28,14,25,22.40
2006,09,28,14,26,22.30
2006,09,28,14,27,22.20
2006,09,28,14,28,22.10
2006,09,28,14,29,22.10
2006,09,28,14,30,22.00
2006,09,28,14,31,22.00
2006,09,28,14,32,21.90
2006,09,28,14,33,21.90
2006,09,28,14,34,21.90
2006,09,28,14,35,21.80
2006,09,28,14,36,21.90
2006,09,28,14,37,21.90
2006,09,28,14,38,22.00
2006,09,28,14,39,22.00
2006,09,28,14,40,22.00
2006,09,28,14,41,22.10
2006,09,28,14,42,22.10
2006,09,28,14,43,22.10
2006,09,28,14,44,22.10
2006,09,28,14,45,22.30
2006,09,28,14,46,22.30
2006,09,28,14,47,22.30
2006,09,28,14,48,22.30
2006,09,28,14,49,22.30
2006,09,28,14,50,22.20
2006,09,28,14,51,22.10
2006,09,28,14,52,22.10
2006,09,28,14,53,22.00
2006,09,28,14,54,22.00
2006,09,28,14,55,22.10
2006,09,28,14,56,22.20
2006,09,28,14,57,22.40
2006,09,28,14,58,22.40
2006,09,28,14,59,22.40
2006,09,28,15,00,22.40
2006,09,28,15,01,22.50
2006,09,28,15,02,22.60
2006,09,28,15,03,22.60
2006,09,28,15,04,22.60
2006,09,28,15,05,22.70
2006,09,28,15,06,22.70
2006,09,28,15,07,22.70
2006,09,28,15,08,22.80
2006,09,28,15,09,22.90
2006,09,28,15,10,23.10
2006,09,28,15,11,23.20
2006,09,28,15,12,23.30
2006,09,28,15,13,23.20
2006,09,28,15,14,22.90
2006,09,28,15,15,22.60
2006,09,28,15,16,22.30
2006,09,28,15,17,22.00
2006,09,28,15,18,21.70
2006,09,28,15,19,21.40
2006,09,28,15,20,21.20
2006,09,28,15,21,21.10
2006,09,28,15,22,21.10
2006,09,28,15,23,21.00
2006,09,28,15,24,21.10
2006,09,28,15,25,21.10
2006,09,28,15,26,21.00
2006,09,28,15,27,21.00
2006,09,28,15,28,21.00
2006,09,28,15,29,21.10
2006,09,28,15,30,21.20
2006,09,28,15,31,21.10
2006,09,28,15,32,21.00
2006,09,28,15,33,21.00
2006,09,28,15,34,21.00
2006,09,28,15,35,21.00
2006,09,28,15,36,21.00
2006,09,28,15,37,21.00
2006,09,28,15,38,21.10
2006,09,28,15,39,21.20
2006,09,28,15,40,21.30
2006,09,28,15,41,21.50
2006,09,28,15,42,21.60
2006,09,28,15,43,21.70
2006,09,28,15,44,21.70
2006,09,28,15,45,21.80
2006,09,28,15,46,21.80
2006,09,28,15,47,21.90
2006,09,28,15,48,21.90
2006,09,28,15,49,21.90
2006,09,28,15,50,21.80
2006,09,28,15,51,21.90
2006,09,28,15,52,21.90
2006,09,28,15,53,21.80
2006,09,28,15,54,21.80
2006,09,28,15,55,21.80
2006,09,28,15,56,21.80
2006,09,28,15,57,21.80
2006,09,28,15,58,21.80
2006,09,28,15,59,21.80
2006,09,28,16,00,21.80
2006,09,28,16,01,21.70
2006,09,28,16,02,21.70
2006,09,28,16,03,21.60
2006,09,28,16,04,21.60
2006,09,28,16,05,21.60
2006,09,28,16,06,21.70
2006,09,28,16,07,21.70
2006,09,28,16,08,21.60
2006,09,28,16,09,21.60
2006,09,28,16,10,21.60
2006,09,28,16,11,21.50
2006,09,28,16,12,21.30
2006,09,28,16,13,21.30
2006,09,28,16,14,21.30
2006,09,28,16,15,21.30
2006,09,28,16,16,21.20
2006,09,28,16,17,21.20
2006,09,28,16,18,21.20
2006,09,28,16,19,21.10
2006,09,28,16,20,21.10
2006,09,28,16,21,21.10
2006,09,28,16,22,21.00
2006,09,28,16,23,21.00
2006,09,28,16,24,21.00
2006,09,28,16,25,21.00
2006,09,28,16,26,20.90
2006,09,28,16,27,20.90
2006,09,28,16,28,20.90
2006,09,28,16,29,20.80
2006,09,28,16,30,20.80
2006,09,28,16,31,20.70
2006,09,28,16,32,20.70
2006,09,28,16,33,20.70
2006,09,28,16,34,20.80
2006,09,28,16,35,20.80
2006,09,28,16,36,20.80
2006,09,28,16,37,20.70
2006,09,28,16,38,20.70
2006,09,28,16,39,20.70
2006,09,28,16,40,20.80
2006,09,28,16,41,20.90
2006,09,28,16,42,20.80
2006,09,28,16,43,20.90
2006,09,28,16,44,20.90
2006,09,28,16,45,21.00
2006,09,28,16,46,21.10
2006,09,28,16,47,21.10
2006,09,28,16,48,21.10
2006,09,28,16,49,21.10
2006,09,28,16,50,21.10
2006,09,28,16,51,21.20
2006,09,28,16,52,21.20
2006,09,28,16,53,21.30
2006,09,28,16,54,21.30
2006,09,28,16,55,21.40
2006,09,28,16,56,21.30
2006,09,28,16,57,21.30
2006,09,28,16,58,21.40
2006,09,28,16,59,21.40
2006,09,28,17,00,21.40
2006,09,28,17,01,21.40
2006,09,28,17,02,21.40
2006,09,28,17,03,21.40
2006,09,28,17,04,21.30
2006,09,28,17,05,21.30
2006,09,28,17,06,21.30
2006,09,28,17,07,21.30
2006,09,28,17,08,21.30
2006,09,28,17,09,21.30
2006,09,28,17,10,21.10
2006,09,28,17,11,21.10
2006,09,28,17,12,21.00
2006,09,28,17,13,21.00
2006,09,28,17,14,20.90
2006,09,28,17,15,20.90
2006,09,28,17,16,20.80
2006,09,28,17,17,20.70
2006,09,28,17,18,20.60
2006,09,28,17,19,20.50